DMSP 5D-2 F13 DEB, 40611

Orbit data source: Space-Track

DMSP 5D-2 F13 DEB, 40611 is space debris in SSO originally from a launch on Fri, 24 Mar 1995 UTC launched from the Air Force Western Test Range (AFWTR). Debris objects in space refer to the collection of defunct objects orbiting the Earth. Examples of debris include non-operational satellites, rocket bodies, and fragments generated from explosions, collisions, or faulty payload assembly.

Loading next visibility...
Identifier
40611, 1995-015FJ
Orbit
SSO
Country
Flag of USUS
Related business
Manufacturer
Unknown
Mission
Spacecraft
Bus & Motor
Unknown
Mass
Unknown
Launch date (UTC)
1995-03-24 (31 years ago)
Launch vehicle
Unknown
Launch site
Air Force Western Test Range (AFWTR)
Object type
Payload
Rocket body
Debris
Shape & HBR
Unknown shape, 0.1 m
Radar Cross Section
Small (<0.1 m²)

Expand to show TLE details & history
Last TLE update: 2 days ago

TLE from 2 days ago
0 DMSP 5D-2 F13 DEB
1 40611U 95015FJ  25349.02530528  .00003956  00000-0  13720-2 0  9998
2 40611  98.7848  18.2752 0027656 313.5652  46.3237 14.35956297552024
Epoch: 2025-12-15T00:36Z
TLE epoch observation values (Epoch: 2025-12-15T00:36:26.376Z)
Latitude
0.00001°
Longitude
-74.7645°
Altitude
761.194 km
Speed
7.481 km/s
True Right ascension
01h 13m 06s
True Declination
0° 00' 00"
Sunlit
Object was in daylight at epoch
Visualization orbit readout
Latitude
Unknown
Longitude
Unknown
Altitude
Unknown
Speed
Unknown
Apparent Right ascension
Unknown
Apparent Declination
Unknown
Sunlit
N/A
Visualization observer readout
Local Sidereal Time
16:55:51
Azimuth
Unknown
Elevation
Unknown
Doppler factor
Unknown
Orbital elements
Apogee altitude
788.797 km
Perigee altitude
749.265 km
Semi-major axis
7,147.168 km
Eccentricity
0.00277
Inclination
98.7848°
RAAN
18.2752°
Arg. of periapsis
313.5652°
True anomaly
46.55346°
Mean anomaly
46.3237°
Eccentric anomaly
46.43852°
Mean motion
3.59205 °/min
Orbital period
100.22 mins
BSTAR
0.001372
Loading maneuver chart data...
Computing Atmospheric mass density...

Documentation

Showing up to 5 results
|